Location: Madden
(51.3728°N, 114.3297°W)
Time: 05:18:19
(UTC+00:00)

PCSat - Pass Details

Date: 14 December 2023
Orbit: 784 x 791 km, 67.0° (Epoch: 02 March)

Event Time Altitude Azimuth Distance (km) Brightness Sun altitude
Exits shadow 11:15:56 13° 29° (NNE) 2,163 12.2 -38.9°
Drops below altitude 10° 11:16:30 10° 31° (NNE) 2,363 12.4 -38.9°
Sets 11:19:02 0° 38° (NE) 3,296 13.3 -38.5°
